TimeGMT,TemperatureF,Dew PointF,Humidity,Sea Level PressureIn,VisibilityMPH,Wind Direction,Wind SpeedMPH,Gust SpeedMPH,PrecipitationIn,Events,Conditions,WindDirDegrees,DateUTC
12:20 AM,41.0,32.0,70,30.18,6.2,South,12.7,-,N/A,,Unknown,190,2012-12-12 00:20:00
12:50 AM,41.0,32.0,70,30.18,6.2,South,13.8,-,N/A,,Unknown,190,2012-12-12 00:50:00
1:20 AM,41.0,32.0,70,30.15,6.2,South,13.8,-,N/A,,Unknown,190,2012-12-12 01:20:00
1:50 AM,41.0,33.8,76,30.15,6.2,South,13.8,-,N/A,,Partly Cloudy,180,2012-12-12 01:50:00
2:20 AM,41.0,32.0,70,30.15,6.2,South,12.7,-,N/A,,Partly Cloudy,190,2012-12-12 02:20:00
2:50 AM,41,33,62,30.14,18,South,12.7,,,,Scattered Clouds,190,2012-12-12 02:50:00
2:50 AM,41.0,32.0,70,30.12,6.2,South,12.7,-,N/A,,Partly Cloudy,190,2012-12-12 02:50:00
3:20 AM,41.0,33.8,76,30.12,6.2,South,13.8,-,N/A,,Partly Cloudy,190,2012-12-12 03:20:00
3:50 AM,41.0,33.8,76,30.09,6.2,South,12.7,-,N/A,,Scattered Clouds,180,2012-12-12 03:50:00
4:20 AM,41.0,33.8,76,30.09,6.2,South,12.7,-,N/A,,Scattered Clouds,190,2012-12-12 04:20:00
4:50 AM,41.0,33.8,76,30.06,6.2,South,12.7,-,N/A,,Scattered Clouds,190,2012-12-12 04:50:00
5:20 AM,41.0,33.8,76,30.06,6.2,South,12.7,-,N/A,,Scattered Clouds,190,2012-12-12 05:20:00
5:50 AM,41,34,66,30.07,14,SSW,13.8,,,,,200,2012-12-12 05:50:00
5:50 AM,41.0,33.8,76,30.06,6.2,SSW,13.8,-,N/A,,Partly Cloudy,200,2012-12-12 05:50:00
6:20 AM,41.0,33.8,76,30.04,6.2,South,12.7,-,N/A,,Partly Cloudy,190,2012-12-12 06:20:00
6:50 AM,41.0,33.8,76,30.04,6.2,South,11.5,-,N/A,,Scattered Clouds,180,2012-12-12 06:50:00
7:20 AM,41.0,33.8,76,30.04,6.2,South,11.5,-,N/A,,Partly Cloudy,180,2012-12-12 07:20:00
7:50 AM,41.0,32.0,70,30.04,6.2,South,11.5,-,N/A,,Unknown,180,2012-12-12 07:50:00
8:20 AM,41.0,32.0,70,30.04,6.2,South,12.7,-,N/A,,Unknown,190,2012-12-12 08:20:00
8:50 AM,42,32,59,30.03,16,South,12.7,,,,Scattered Clouds,170,2012-12-12 08:50:00
8:50 AM,41.0,32.0,70,30.01,6.2,South,12.7,-,N/A,,Partly Cloudy,180,2012-12-12 08:50:00
9:20 AM,41.0,32.0,70,30.01,6.2,South,13.8,-,N/A,,Scattered Clouds,180,2012-12-12 09:20:00
9:50 AM,41.0,30.2,65,30.01,6.2,South,12.7,-,N/A,,Scattered Clouds,180,2012-12-12 09:50:00
10:20 AM,42.8,32.0,66,30.01,6.2,South,13.8,-,N/A,,Scattered Clouds,180,2012-12-12 10:20:00
10:50 AM,42.8,30.2,61,29.98,6.2,South,15.0,-,N/A,,Scattered Clouds,180,2012-12-12 10:50:00
11:20 AM,42.8,32.0,66,29.98,6.2,South,15.0,-,N/A,,Scattered Clouds,180,2012-12-12 11:20:00
11:50 AM,43,33,57,29.98,11,SSE,18.4,,,,Scattered Clouds,160,2012-12-12 11:50:00
11:50 AM,42.8,32.0,66,29.98,6.2,SSE,18.4,-,N/A,,Scattered Clouds,160,2012-12-12 11:50:00
12:20 PM,42.8,32.0,66,29.95,6.2,SSE,17.3,-,N/A,,Scattered Clouds,160,2012-12-12 12:20:00
12:50 PM,41.0,30.2,65,29.95,6.2,South,16.1,-,N/A,,Scattered Clouds,170,2012-12-12 12:50:00
1:20 PM,41.0,33.8,76,29.92,6.2,SSE,16.1,-,N/A,,Partly Cloudy,150,2012-12-12 13:20:00
1:50 PM,42.8,33.8,70,29.92,6.2,SE,18.4,-,N/A,,Scattered Clouds,140,2012-12-12 13:50:00
2:20 PM,41.0,33.8,76,29.92,6.2,SE,18.4,-,N/A,,Scattered Clouds,140,2012-12-12 14:20:00
2:50 PM,41,35,71,29.91,10,SE,16.1,,,,Mostly Cloudy,130,2012-12-12 14:50:00
2:50 PM,41.0,35.6,81,29.89,6.2,SE,16.1,-,N/A,,Scattered Clouds,130,2012-12-12 14:50:00
3:20 PM,41.0,35.6,81,29.89,6.2,SE,17.3,-,N/A,,Mostly Cloudy,130,2012-12-12 15:20:00
3:50 PM,41.0,35.6,81,29.89,6.2,SE,17.3,-,N/A,,Mostly Cloudy,130,2012-12-12 15:50:00
4:20 PM,41.0,37.4,87,29.86,6.2,SE,17.3,-,N/A,Rain,Light Rain Showers,130,2012-12-12 16:20:00
4:50 PM,41.0,37.4,87,29.86,3.1,SE,18.4,-,N/A,Rain,Light Rain,130,2012-12-12 16:50:00
5:20 PM,41.0,37.4,87,29.86,6.2,SE,18.4,-,N/A,,Scattered Clouds,130,2012-12-12 17:20:00
5:50 PM,40,36,82,29.86,5,ESE,18.4,,,Rain,Light Rain,120,2012-12-12 17:50:00
5:50 PM,41.0,37.4,87,29.83,4.3,ESE,18.4,-,N/A,Rain,Light Rain,120,2012-12-12 17:50:00
6:20 PM,41.0,35.6,81,29.83,6.2,ESE,20.7,-,N/A,,Mostly Cloudy,120,2012-12-12 18:20:00
6:50 PM,41.0,35.6,81,29.83,6.2,ESE,19.6,-,N/A,,Mostly Cloudy,120,2012-12-12 18:50:00
7:20 PM,41.0,35.6,81,29.83,6.2,SE,19.6,-,N/A,,Mostly Cloudy,130,2012-12-12 19:20:00
7:50 PM,41.0,35.6,81,29.80,6.2,SE,18.4,-,N/A,,Mostly Cloudy,130,2012-12-12 19:50:00
8:20 PM,41.0,35.6,81,29.80,6.2,SE,18.4,-,N/A,,Scattered Clouds,130,2012-12-12 20:20:00
8:50 PM,40,36,80,29.81,14,SE,19.6,,,,Partly Cloudy,140,2012-12-12 20:50:00
8:50 PM,41.0,35.6,81,29.80,6.2,SE,19.6,-,N/A,,Scattered Clouds,140,2012-12-12 20:50:00
9:20 PM,39.2,35.6,87,29.80,6.2,SE,20.7,-,N/A,,Partly Cloudy,140,2012-12-12 21:20:00
9:50 PM,39.2,35.6,87,29.77,6.2,SE,18.4,-,N/A,,Mostly Cloudy,130,2012-12-12 21:50:00
10:20 PM,39.2,35.6,87,29.77,6.2,SE,19.6,-,N/A,,Partly Cloudy,130,2012-12-12 22:20:00
10:50 PM,39.2,33.8,81,29.77,6.2,SE,18.4,-,N/A,,Unknown,130,2012-12-12 22:50:00
11:20 PM,41.0,33.8,76,29.77,6.2,SE,19.6,-,N/A,,Partly Cloudy,130,2012-12-12 23:20:00
11:50 PM,40,33,69,29.77,18,SE,18.4,,,,Scattered Clouds,130,2012-12-12 23:50:00
11:50 PM,41.0,33.8,76,29.74,6.2,SE,18.4,-,N/A,,Mostly Cloudy,130,2012-12-12 23:50:00